Miscellaneous Local Product
Issued by NWS Hastings, NE

Home | Current Version | Previous Version | Text Only | Print | Product List | Glossary Off
Versions: 1 2 3 4 5 6 7 8 9 10 11 12 13 14 15 16 17 18 19 20 21 22 23 24 25 26 27 28 29 30 31 32 33 34 35 36 37 38 39 40 41 42 43 44 45 46 47 48 49 50

000
AXUS43 KGID 220202
MISGRI

GID CWA HOURLY WEATHER ROUNDUP
NATIONAL WEATHER SERVICE HASTINGS NE
900 PM CDT MON APR 21 2014

NOTE: "FAIR" INDICATES FEW OR NO CLOUDS BELOW 12,000 FEET WITH NO
SIGNIFICANT WEATHER AND/OR OBSTRUCTIONS TO VISIBILITY.

...SOUTH CENTRAL NEBRASKA...

CITY           SKY/WX    TMP DP  RH WIND       PRES   REMARKS
GRAND ISLAND   CLEAR     54  30  40 N9        30.13R
HASTINGS       CLEAR     57  26  30 N7        30.12R
KEARNEY        CLEAR     55  32  41 N8        30.15R
ORD              N/A     56  27  32 N5        30.13R
YORK           CLEAR     55  30  38 N10       30.10R
AURORA         CLEAR     57  29  34 N10       30.11R
LEXINGTON      PTCLDY    56  30  37 E5        30.15R
HOLDREGE       CLEAR     55  27  34 N6        30.15R
HEBRON         CLEAR     62  25  24 N5        30.09R

...NEBRASKA PANHANDLE...

CITY           SKY/WX    TMP DP  RH WIND       PRES   REMARKS
CHADRON        CLEAR     52  37  56 SE8       30.10F
ALLIANCE       CLEAR     51  30  44 SE10      30.13S
SCOTTSBLUFF    CLEAR     58  31  35 E9        30.11S
SIDNEY         CLEAR     53  30  41 SE6       30.16S

...WESTERN AND NORTH CENTRAL NEBRASKA...

CITY           SKY/WX    TMP DP  RH WIND       PRES   REMARKS
VALENTINE      PTCLDY    59  25  27 NE6       30.14S
AINSWORTH      PTCLDY    54  27  35 E7        30.15S
ONEILL         CLEAR     56  23  28 N8        30.15R
BROKEN BOW     CLEAR     49  27  42 N5        30.14S
IMPERIAL       CLEAR     54  27  35 SE6       30.14S
NORTH PLATTE   CLEAR     54  25  32 NE7       30.14S
MCCOOK         CLEAR     59  33  37 E8        30.14R

...EASTERN NEBRASKA...

CITY           SKY/WX    TMP DP  RH WIND       PRES   REMARKS
NORFOLK        CLEAR     59  28  30 N12       30.12R
SO SIOUX CITY  CLEAR     61  31  32 N18G24    30.09R
TEKAMAH        CLEAR     62  26  25 N14       30.07R
COLUMBUS       CLEAR     59  27  29 N10       30.12R
ALBION         CLEAR     58  25  29 N7        30.13R
OMAHA EPPLEY   PTCLDY    64  28  25 N13       30.06R
OFFUTT AFB     PTCLDY    64  28  25 N13       30.05R
MILLARD        PTCLDY    67  26  21 NW8       30.06R
LINCOLN        CLEAR     57  29  34 N10       30.09R
NEBRASKA CITY  CLEAR     64  26  24 N10       30.04R
BEATRICE       CLEAR     61  25  24 N7        30.08R
FALLS CITY     CLEAR     63  29  27 NW6       30.03R

...NORTHERN KANSAS...

CITY           SKY/WX    TMP DP  RH WIND       PRES   REMARKS
GOODLAND       CLEAR     54  32  43 SE8       30.17R
HILL CITY      CLEAR     56  40  55 N8        30.14R
PHILLIPSBURG   CLEAR     63  28  27 N6        30.13R
SMITH CENTER   CLEAR     59  28  31 N5        30.13R
BELOIT         CLEAR     54  37  54 N6        30.08R
HAYS           CLEAR     57  36  44 N8        30.13R
RUSSELL        CLEAR     60  30  32 N7        30.10R
CONCORDIA      CLEAR     63  26  24 N7        30.09R
SALINA         CLEAR     69  24  18 N13       30.08R
TOPEKA         CLEAR     65  39  38 NW5       30.03R



USA.gov is the U.S. government's official web portal to all federal, state and local government web resources and services.